Weather History for Paris Le Bourget, France

Change the Weather History Date:

Sunday, November 4, 2012

  Actual Average Record
Temperature  
Mean Temperature 47 °F -  
Max Temperature 53 °F 48 °F 64 °F (2010)
Min Temperature 41 °F 39 °F 32 °F (2006)
Degree Days  
Heating Degree Days 18    
Moisture  
Dew Point 42 °F    
Average Humidity 83    
Maximum Humidity 100    
Minimum Humidity 54    
Precipitation  
Precipitation 0.00 in 0.07 in - ()
Sea Level Pressure  
Sea Level Pressure 29.52 in    
Wind  
Wind Speed 8 mph ()    
Max Wind Speed 20 mph    
Max Gust Speed -    
Visibility 5.5 miles    
Events Fog , Rain    
Averages and records for this station are not official NWS values.
T = Trace of Precipitation, MM = Missing Value Source: Averaged Metar Reports

Daily Weather History Graph

Daily Weather History Graph

Search for Another Location

Airport:

Trip Planner

Search our weather history database for the weather conditions in past years. The results will help you decide how hot, cold, wet, or windy it might be!

Date:

Astronomy

Nov. 04, 2012 Rise Set
Actual Time 7:42 AM CET 5:24 PM CET
Civil Twilight 7:09 AM CET 5:57 PM CET
Nautical Twilight 6:31 AM CET 6:35 PM CET
Astronomical Twilight 5:54 AM CET 7:12 PM CET
Moon 9:42 PM CET (11/4) 12:23 PM CET (11/4)
Length of Visible Light 10h 48m
Length of Day
9h 41m
Waning Gibbous, 74% of the Moon is Illuminated
Nov 4
Waning Gibbous
Nov 7
Last Quarter
Nov 13
New
Nov 20
First Quarter
Nov 28
Full

Hourly Weather History & Observations

Time (CET) Temp. Windchill Dew Point Humidity Pressure Visibility Wind Dir Wind Speed Gust Speed Precip Events Conditions
12:00 AM 42.8 °F - 41.0 °F 93% 29.65 in 6.2 mi East 2.3 mph - N/A   Unknown
12:30 AM 41.0 °F - 41.0 °F 100% 29.65 in 6.2 mi ESE 2.3 mph - N/A   Overcast
1:00 AM 41.0 °F 39.0 °F 39.2 °F 93% 29.62 in 4.3 mi ENE 3.5 mph - N/A   Overcast
1:30 AM 41.0 °F 39.0 °F 41.0 °F 100% 29.62 in 6.2 mi SE 3.5 mph - N/A   Overcast
2:00 AM 41.0 °F 39.0 °F 41.0 °F 100% 29.62 in 6.2 mi ESE 3.5 mph - N/A   Overcast
2:30 AM 41.0 °F - 41.0 °F 100% 29.62 in 5.0 mi Variable 2.3 mph - N/A   Overcast
3:00 AM 41.0 °F - 41.0 °F 100% 29.62 in 0.7 mi SSE 2.3 mph - N/A Fog Fog
3:30 AM 41.0 °F 39.0 °F 41.0 °F 100% 29.59 in 3.1 mi Variable 3.5 mph - N/A Fog Patches of Fog
4:00 AM 42.8 °F 38.6 °F 42.8 °F 100% 29.59 in 3.1 mi South 6.9 mph - N/A   Mostly Cloudy
4:30 AM 42.8 °F 39.3 °F 42.8 °F 100% 29.59 in - SSE 5.8 mph - N/A   Overcast
5:00 AM 44.6 °F 43.1 °F 44.6 °F 100% 29.59 in - SSE 3.5 mph - N/A   Overcast
5:30 AM 44.6 °F 40.2 °F 42.8 °F 93% 29.56 in 3.1 mi SSE 8.1 mph - N/A   Overcast
6:00 AM 42.8 °F 38.0 °F 42.8 °F 100% 29.56 in 0.7 mi SSE 8.1 mph - N/A Fog Fog
6:30 AM 42.8 °F 37.0 °F 42.8 °F 100% 29.53 in - SE 10.4 mph - N/A   Overcast
7:00 AM 42.8 °F 37.5 °F 42.8 °F 100% 29.53 in 1.6 mi South 9.2 mph - N/A   Overcast
7:30 AM 44.6 °F 42.2 °F 44.6 °F 100% 29.50 in 3.7 mi SE 4.6 mph - N/A   Overcast
8:00 AM 46.4 °F 42.9 °F 46.4 °F 100% 29.50 in 6.2 mi SSE 6.9 mph - N/A   Overcast
8:30 AM 46.4 °F 41.9 °F 46.4 °F 100% 29.47 in 6.2 mi SSE 9.2 mph - N/A   Overcast
9:00 AM 48.2 °F - 46.4 °F 93% 29.47 in 6.2 mi South 13.8 mph - N/A   Overcast
9:30 AM 48.2 °F - 46.4 °F 93% 29.44 in 6.2 mi South 16.1 mph - N/A   Overcast
10:00 AM 50.0 °F - 48.2 °F 94% 29.44 in 6.2 mi South 16.1 mph - N/A   Overcast
10:30 AM 50.0 °F - 48.2 °F 94% 29.44 in 6.2 mi South 16.1 mph - N/A Rain Light Rain
11:00 AM 50.0 °F - 48.2 °F 94% 29.44 in 6.2 mi South 17.3 mph - N/A Rain Light Rain
11:30 AM 51.8 °F - 46.4 °F 82% 29.44 in 6.2 mi SSW 19.6 mph - N/A   Overcast
12:00 PM 48.2 °F - 46.4 °F 93% 29.44 in 6.2 mi West 10.4 mph - N/A   Overcast
12:30 PM 51.8 °F - 48.2 °F 88% 29.44 in 6.2 mi WSW 11.5 mph - N/A   Overcast
1:00 PM 51.8 °F - 42.8 °F 71% 29.44 in 6.2 mi WSW 19.6 mph - N/A   Mostly Cloudy
1:30 PM 53.6 °F - 44.6 °F 72% 29.44 in 6.2 mi WSW 16.1 mph - N/A   Mostly Cloudy
2:00 PM 53.6 °F - 42.8 °F 67% 29.47 in 6.2 mi West 16.1 mph - N/A   Scattered Clouds
2:30 PM 53.6 °F - 41.0 °F 62% 29.47 in 6.2 mi WSW 17.3 mph - N/A   Mostly Cloudy
3:00 PM 53.6 °F - 37.4 °F 54% 29.47 in 6.2 mi WSW 18.4 mph - N/A   Partly Cloudy
3:30 PM 53.6 °F - 37.4 °F 54% 29.47 in 6.2 mi WSW 17.3 mph - N/A   Unknown
4:00 PM 53.6 °F - 37.4 °F 54% 29.47 in 6.2 mi WSW 13.8 mph - N/A   Unknown
4:30 PM 51.8 °F - 37.4 °F 58% 29.47 in 6.2 mi WSW 13.8 mph - N/A   Unknown
5:00 PM 51.8 °F - 37.4 °F 58% 29.50 in 6.2 mi SW 12.7 mph - N/A   Unknown
5:30 PM 50.0 °F - 37.4 °F 62% 29.50 in 6.2 mi SW 11.5 mph - N/A   Unknown
6:00 PM 50.0 °F - 37.4 °F 62% 29.50 in 6.2 mi SW 10.4 mph - N/A   Unknown
6:30 PM 50.0 °F - 37.4 °F 62% 29.50 in 6.2 mi SSW 10.4 mph - N/A   Mostly Cloudy
7:00 PM 50.0 °F - 37.4 °F 62% 29.50 in 6.2 mi SSW 12.7 mph - N/A   Unknown
7:30 PM 48.2 °F - 39.2 °F 71% 29.50 in 6.2 mi SSW 10.4 mph - N/A   Unknown
8:00 PM 50.0 °F - 39.2 °F 66% 29.50 in 6.2 mi SSW 11.5 mph - N/A   Mostly Cloudy
8:30 PM 48.2 °F - 39.2 °F 71% 29.50 in 6.2 mi South 10.4 mph - N/A   Scattered Clouds
9:00 PM 48.2 °F - 41.0 °F 76% 29.50 in 6.2 mi SSW 10.4 mph - N/A   Partly Cloudy
9:30 PM 48.2 °F - 41.0 °F 76% 29.50 in 6.2 mi SSW 10.4 mph - N/A   Unknown
10:00 PM 48.2 °F - 41.0 °F 76% 29.50 in 6.2 mi SSW 10.4 mph - N/A   Unknown
10:30 PM 46.4 °F 41.9 °F 41.0 °F 81% 29.50 in 6.2 mi SSW 9.2 mph - N/A   Unknown
11:00 PM 46.4 °F 42.4 °F 41.0 °F 81% 29.53 in 6.2 mi SSW 8.1 mph - N/A   Scattered Clouds
11:30 PM 46.4 °F 42.9 °F 41.0 °F 81% 29.53 in 6.2 mi SW 6.9 mph - N/A   Mostly Cloudy